Hourly Data Report for August 03, 2020

LYTTON RCS
BRITISH COLUMBIA
Current Station Operator: ECCC - MSC

50°13'28.000" N
121°34'55.000" W
225.00 m
1114746
71765
VLY

Download Data

Hourly Data (August 2020)
Hourly Data Report for August 3, 2020
TIME Temp Definition
°C
Dew Point Definition
°C
Rel Hum Definition
%
Wind Dir Definition
10's deg

Wind Spd Definition
km/h
Visibility Definition
km
Stn Press Definition
kPa
Hmdx Definition


Wind Chill Definition


Weather Definition


00:00 22.5 9.6 44 20 19   98.79     LegendNANA
01:00 21.6 9.6 46 20 22   98.84     LegendNANA
02:00 21.4 9.5 47 20 23   98.87     LegendNANA
03:00 21.3 9.3 46 19 20   98.91     LegendNANA
04:00 20.7 9.3 48 18 20   98.95     LegendNANA
05:00 20.1 9.8 51 19 23   98.96     LegendNANA
06:00 19.8 9.9 53 19 26   99.03     LegendNANA
07:00 19.7 10.5 55 18 30   99.05     LegendNANA
08:00 22.1 10.0 46 18 36   99.06     LegendNANA
09:00 24.0 9.8 41 18 33   99.04 25   LegendNANA
10:00 26.0 9.9 36 18 27   99.02 27   LegendNANA
11:00 26.0 9.7 36 19 17   98.97 27   LegendNANA
12:00 28.7 8.8 29 18 27   98.91 29   LegendNANA
13:00 30.4 8.6 26 18 24   98.92 31   LegendNANA
14:00 31.2 8.9 25 19 19   98.91 32   LegendNANA
15:00 31.4 6.7 21 19 17   98.88 31   LegendNANA
16:00 30.8 7.1 23 18 14   98.90 31   LegendNANA
17:00 29.9 7.1 24 24 5   98.88 30   LegendNANA
18:00 27.9 5.3 24 34 7   98.89 27   LegendNANA
19:00 25.6 6.8 30 16 5   98.92 26   LegendNANA
20:00 25.3 8.6 35 21 18   98.96 26   LegendNANA
21:00 24.5 9.7 39 20 17   99.02 26   LegendNANA
22:00 23.5 10.9 45 19 22   99.06 25   LegendNANA
23:00 22.1 11.8 52 18 27   99.13     LegendNANA

Notes on Data Quality.

Legend

  • E = Estimated
  • M = Missing
  • NA = Not Available*
  • [empty] = Indicates an unobserved value
Date modified: